GFSNIL_prec_precacc_177.txt.gz
Total_Precipitation_Accumulation
1.37 1.72 1.71 1.58 1.52 1.47 1.41 1.55 1.87 1.77 1.74 1.78 1.73 1.71 1.72 1.76 1.81 1.71 1.62 1.63 1.56 1.50
0.32 0.44 0.65 0.78 0.82 0.97 1.23 1.18 1.31 1.42 1.33 1.32 1.32 1.29 1.37 1.38 1.37 1.49 1.53 1.42 1.35 1.29
0.07 0.10 0.14 0.17 0.18 0.23 0.40 0.55 0.68 0.79 0.81 0.88 0.93 1.07 1.17 1.21 1.29 1.39 1.40 1.42 1.46 1.47
0.04 0.06 0.07 0.07 0.05 0.05 0.07 0.08 0.10 0.12 0.15 0.17 0.24 0.42 0.63 0.79 0.97 1.17 1.32 1.59 1.84 1.95
0.04 0.04 0.05 0.05 0.07 0.07 0.07 0.05 0.05 0.06 0.06 0.06 0.10 0.13 0.15 0.17 0.22 0.30 0.40 0.55 0.71 0.79
0.08 0.06 0.06 0.06 0.06 0.06 0.06 0.06 0.05 0.04 0.05 0.06 0.05 0.06 0.08 0.11 0.14 0.20 0.29 0.36 0.41 0.44
0.13 0.10 0.08 0.07 0.06 0.05 0.05 0.05 0.04 0.05 0.05 0.07 0.08 0.10 0.11 0.11 0.11 0.10 0.10 0.13 0.15 0.22
0.07 0.08 0.07 0.06 0.07 0.05 0.05 0.04 0.04 0.08 0.14 0.16 0.17 0.20 0.19 0.19 0.20 0.21 0.25 0.26 0.31 0.37
0.05 0.06 0.08 0.09 0.09 0.09 0.09 0.10 0.10 0.13 0.14 0.17 0.21 0.37 0.31 0.25 0.26 0.29 0.31 0.34 0.37 0.41
0.08 0.09 0.12 0.14 0.16 0.14 0.12 0.15 0.24 0.25 0.20 0.16 0.15 0.29 0.24 0.22 0.20 0.23 0.25 0.25 0.23 0.20
0.47 0.39 0.39 0.41 0.40 0.32 0.30 0.29 0.25 0.27 0.37 0.45 0.54 0.51 0.36 0.28 0.20 0.19 0.17 0.15 0.13 0.09
0.66 0.62 0.87 1.01 0.86 0.75 0.73 0.68 0.77 0.64 0.55 0.66 0.74 0.61 0.47 0.30 0.22 0.18 0.13 0.07 0.02 0.02
0.78 0.64 0.75 0.70 0.76 0.71 0.63 0.68 0.66 0.70 0.57 0.52 0.48 0.35 0.27 0.20 0.13 0.07 0.03 0.02 0.02 0.03
0.55 0.71 0.67 0.69 0.53 0.61 0.53 0.41 0.37 0.33 0.30 0.21 0.12 0.05 0.03 0.04 0.04 0.03 0.04 0.02 0.01 0.01

GFSNIL_prec_precacc_180.txt.gz
Total_Precipitation_Accumulation
1.52 1.86 1.78 1.61 1.52 1.47 1.41 1.55 1.87 1.77 1.74 1.78 1.73 1.71 1.72 1.76 1.81 1.71 1.62 1.63 1.56 1.50
0.45 0.54 0.72 0.79 0.82 0.97 1.23 1.18 1.31 1.42 1.33 1.32 1.32 1.29 1.37 1.38 1.37 1.49 1.53 1.42 1.35 1.29
0.12 0.17 0.17 0.17 0.18 0.23 0.40 0.55 0.68 0.79 0.81 0.88 0.93 1.07 1.17 1.21 1.29 1.39 1.40 1.42 1.46 1.47
0.07 0.08 0.09 0.07 0.05 0.05 0.07 0.08 0.10 0.12 0.15 0.17 0.24 0.42 0.63 0.79 0.97 1.17 1.32 1.59 1.84 1.95
0.06 0.04 0.05 0.05 0.07 0.07 0.07 0.05 0.05 0.06 0.06 0.06 0.10 0.13 0.15 0.17 0.22 0.30 0.40 0.55 0.71 0.79
0.12 0.07 0.06 0.06 0.06 0.06 0.06 0.06 0.05 0.04 0.05 0.06 0.05 0.06 0.08 0.11 0.14 0.20 0.29 0.36 0.41 0.44
0.17 0.14 0.08 0.07 0.06 0.05 0.05 0.05 0.04 0.05 0.05 0.07 0.08 0.10 0.11 0.11 0.11 0.10 0.10 0.13 0.15 0.22
0.11 0.13 0.10 0.06 0.07 0.05 0.05 0.04 0.04 0.08 0.14 0.16 0.17 0.20 0.19 0.19 0.20 0.21 0.25 0.26 0.31 0.37
0.08 0.08 0.09 0.09 0.09 0.09 0.09 0.10 0.10 0.13 0.14 0.17 0.21 0.37 0.31 0.25 0.26 0.29 0.31 0.34 0.37 0.41
0.11 0.10 0.12 0.14 0.16 0.14 0.12 0.15 0.24 0.25 0.20 0.16 0.15 0.29 0.24 0.22 0.20 0.23 0.25 0.25 0.23 0.20
0.47 0.39 0.39 0.41 0.40 0.32 0.30 0.29 0.25 0.27 0.37 0.45 0.54 0.51 0.36 0.28 0.20 0.19 0.17 0.15 0.13 0.09
0.66 0.62 0.87 1.01 0.86 0.75 0.73 0.68 0.77 0.64 0.55 0.66 0.74 0.61 0.47 0.30 0.22 0.18 0.13 0.07 0.02 0.02
0.78 0.64 0.75 0.70 0.76 0.71 0.63 0.68 0.66 0.70 0.57 0.52 0.48 0.35 0.27 0.20 0.13 0.07 0.03 0.02 0.02 0.03
0.55 0.71 0.67 0.69 0.53 0.61 0.53 0.41 0.37 0.33 0.30 0.21 0.12 0.05 0.03 0.04 0.04 0.03 0.04 0.02 0.01 0.01

GFSNIL_prec_precacc_183.txt.gz
Total_Precipitation_Accumulation
1.54 1.90 1.85 1.67 1.57 1.52 1.42 1.55 1.87 1.77 1.74 1.78 1.73 1.71 1.72 1.76 1.81 1.71 1.62 1.63 1.56 1.50
0.48 0.62 0.80 0.87 0.85 0.98 1.24 1.19 1.31 1.42 1.33 1.32 1.32 1.29 1.37 1.38 1.37 1.49 1.53 1.42 1.35 1.29
0.18 0.24 0.30 0.26 0.21 0.23 0.41 0.55 0.68 0.79 0.81 0.88 0.93 1.07 1.17 1.21 1.29 1.39 1.40 1.42 1.46 1.47
0.17 0.18 0.17 0.16 0.07 0.05 0.07 0.08 0.10 0.12 0.15 0.17 0.24 0.42 0.63 0.79 0.97 1.17 1.32 1.59 1.84 1.95
0.15 0.14 0.15 0.14 0.09 0.07 0.07 0.05 0.05 0.06 0.06 0.06 0.10 0.13 0.15 0.17 0.22 0.30 0.40 0.55 0.71 0.79
0.22 0.13 0.14 0.14 0.08 0.07 0.06 0.06 0.05 0.04 0.05 0.06 0.05 0.06 0.08 0.11 0.14 0.20 0.29 0.36 0.41 0.44
0.30 0.17 0.11 0.10 0.07 0.06 0.05 0.05 0.04 0.05 0.05 0.07 0.08 0.10 0.11 0.11 0.11 0.10 0.10 0.13 0.15 0.22
0.20 0.15 0.10 0.07 0.07 0.06 0.05 0.04 0.04 0.08 0.14 0.16 0.17 0.20 0.19 0.19 0.20 0.21 0.25 0.26 0.31 0.37
0.14 0.08 0.09 0.09 0.09 0.09 0.09 0.10 0.10 0.13 0.14 0.17 0.21 0.37 0.31 0.25 0.26 0.29 0.31 0.34 0.37 0.41
0.20 0.13 0.12 0.14 0.16 0.14 0.12 0.15 0.24 0.25 0.20 0.16 0.15 0.29 0.24 0.22 0.20 0.23 0.25 0.25 0.23 0.20
0.58 0.43 0.40 0.41 0.40 0.32 0.30 0.29 0.25 0.27 0.37 0.45 0.54 0.51 0.36 0.28 0.20 0.19 0.17 0.15 0.13 0.09
0.71 0.64 0.88 1.01 0.86 0.75 0.73 0.68 0.77 0.64 0.55 0.66 0.74 0.61 0.47 0.30 0.22 0.18 0.13 0.07 0.02 0.02
0.79 0.64 0.75 0.70 0.76 0.71 0.63 0.68 0.66 0.70 0.57 0.52 0.48 0.35 0.27 0.20 0.13 0.07 0.03 0.02 0.02 0.03
0.55 0.71 0.67 0.69 0.53 0.61 0.53 0.41 0.37 0.33 0.30 0.21 0.12 0.05 0.03 0.04 0.04 0.03 0.04 0.02 0.01 0.01

GFSNIL_prec_precacc_186.txt.gz
Total_Precipitation_Accumulation
1.54 1.90 1.85 1.67 1.57 1.53 1.43 1.55 1.87 1.77 1.74 1.78 1.73 1.71 1.72 1.76 1.81 1.71 1.62 1.63 1.56 1.50
0.48 0.63 0.81 0.88 0.87 0.99 1.26 1.20 1.31 1.42 1.33 1.32 1.32 1.29 1.37 1.38 1.37 1.49 1.53 1.42 1.35 1.29
0.18 0.25 0.33 0.27 0.25 0.26 0.41 0.57 0.68 0.79 0.81 0.88 0.93 1.07 1.17 1.21 1.29 1.39 1.40 1.42 1.46 1.47
0.18 0.19 0.21 0.20 0.09 0.10 0.08 0.08 0.10 0.12 0.15 0.17 0.24 0.42 0.63 0.79 0.97 1.17 1.32 1.59 1.84 1.95
0.19 0.21 0.18 0.19 0.12 0.10 0.09 0.05 0.05 0.06 0.06 0.06 0.10 0.13 0.15 0.17 0.22 0.30 0.40 0.55 0.71 0.79
0.29 0.28 0.21 0.20 0.12 0.09 0.07 0.06 0.05 0.04 0.05 0.06 0.05 0.06 0.08 0.11 0.14 0.20 0.29 0.36 0.41 0.44
0.43 0.35 0.25 0.22 0.12 0.08 0.06 0.05 0.04 0.05 0.05 0.07 0.08 0.10 0.11 0.11 0.11 0.10 0.10 0.13 0.15 0.22
0.37 0.33 0.26 0.20 0.11 0.07 0.05 0.04 0.04 0.08 0.14 0.16 0.17 0.20 0.19 0.19 0.20 0.21 0.25 0.26 0.31 0.37
0.34 0.27 0.27 0.18 0.10 0.09 0.09 0.10 0.10 0.13 0.14 0.17 0.21 0.37 0.31 0.25 0.26 0.29 0.31 0.34 0.37 0.41
0.33 0.23 0.21 0.16 0.16 0.14 0.12 0.15 0.24 0.25 0.20 0.16 0.15 0.29 0.24 0.22 0.20 0.23 0.25 0.25 0.23 0.20
0.68 0.49 0.42 0.41 0.40 0.32 0.30 0.29 0.25 0.27 0.37 0.45 0.54 0.51 0.36 0.28 0.20 0.19 0.17 0.15 0.13 0.09
0.83 0.69 0.88 1.01 0.86 0.75 0.73 0.68 0.77 0.64 0.55 0.66 0.74 0.61 0.47 0.30 0.22 0.18 0.13 0.07 0.02 0.02
0.93 0.68 0.75 0.70 0.76 0.71 0.63 0.68 0.66 0.70 0.57 0.52 0.48 0.35 0.27 0.20 0.13 0.07 0.03 0.02 0.02 0.03
0.66 0.74 0.67 0.69 0.53 0.61 0.53 0.41 0.37 0.33 0.30 0.21 0.12 0.05 0.03 0.04 0.04 0.03 0.04 0.02 0.01 0.01

GFSNIL_prec_precacc_189.txt.gz
Total_Precipitation_Accumulation
1.55 1.91 1.85 1.67 1.57 1.53 1.43 1.55 1.87 1.77 1.74 1.78 1.73 1.71 1.72 1.76 1.81 1.71 1.62 1.63 1.56 1.50
0.50 0.63 0.81 0.88 0.87 0.99 1.26 1.20 1.32 1.42 1.33 1.32 1.32 1.29 1.37 1.38 1.37 1.49 1.53 1.42 1.35 1.29
0.21 0.25 0.34 0.27 0.25 0.26 0.42 0.57 0.69 0.80 0.83 0.88 0.93 1.07 1.17 1.21 1.29 1.39 1.40 1.42 1.46 1.47
0.20 0.19 0.23 0.20 0.09 0.10 0.08 0.09 0.14 0.13 0.16 0.17 0.24 0.42 0.63 0.79 0.97 1.17 1.32 1.59 1.84 1.95
0.21 0.21 0.19 0.21 0.12 0.11 0.10 0.06 0.09 0.09 0.06 0.06 0.10 0.13 0.15 0.17 0.22 0.30 0.40 0.55 0.71 0.79
0.31 0.29 0.21 0.23 0.15 0.11 0.11 0.08 0.08 0.08 0.07 0.06 0.05 0.06 0.08 0.11 0.14 0.20 0.29 0.36 0.41 0.44
0.46 0.36 0.29 0.24 0.16 0.11 0.09 0.08 0.06 0.08 0.05 0.07 0.08 0.10 0.11 0.11 0.11 0.10 0.10 0.13 0.15 0.22
0.44 0.36 0.33 0.27 0.18 0.14 0.09 0.06 0.05 0.09 0.14 0.16 0.17 0.20 0.19 0.19 0.20 0.21 0.25 0.26 0.31 0.37
0.43 0.35 0.34 0.33 0.19 0.14 0.13 0.12 0.11 0.13 0.14 0.17 0.21 0.37 0.31 0.25 0.26 0.29 0.31 0.34 0.37 0.41
0.50 0.41 0.38 0.31 0.24 0.17 0.14 0.15 0.24 0.25 0.20 0.16 0.15 0.29 0.24 0.22 0.20 0.23 0.25 0.25 0.23 0.20
0.87 0.72 0.62 0.51 0.45 0.33 0.30 0.29 0.25 0.27 0.37 0.45 0.54 0.51 0.36 0.28 0.20 0.19 0.17 0.15 0.13 0.09
0.99 0.87 1.01 1.07 0.88 0.75 0.73 0.69 0.77 0.64 0.55 0.66 0.74 0.61 0.47 0.30 0.22 0.18 0.13 0.07 0.02 0.02
1.04 0.79 0.82 0.72 0.77 0.72 0.63 0.68 0.66 0.70 0.57 0.52 0.48 0.35 0.27 0.20 0.13 0.07 0.03 0.02 0.02 0.03
0.72 0.78 0.70 0.70 0.53 0.61 0.53 0.41 0.37 0.33 0.30 0.21 0.12 0.05 0.03 0.04 0.04 0.03 0.04 0.02 0.01 0.01

GFSNIL_prec_precacc_192.txt.gz
Total_Precipitation_Accumulation
1.57 1.92 1.85 1.67 1.57 1.53 1.43 1.55 1.88 1.77 1.74 1.78 1.73 1.71 1.72 1.76 1.81 1.71 1.62 1.63 1.56 1.50
0.56 0.67 0.82 0.88 0.87 0.99 1.26 1.20 1.32 1.43 1.33 1.32 1.32 1.29 1.37 1.38 1.37 1.49 1.53 1.42 1.35 1.29
0.27 0.29 0.35 0.27 0.25 0.26 0.42 0.57 0.69 0.80 0.83 0.88 0.93 1.07 1.17 1.21 1.29 1.39 1.40 1.42 1.46 1.47
0.28 0.26 0.27 0.21 0.09 0.10 0.08 0.10 0.14 0.14 0.16 0.20 0.26 0.42 0.63 0.79 0.97 1.17 1.32 1.59 1.84 1.95
0.37 0.33 0.22 0.23 0.13 0.11 0.11 0.09 0.12 0.10 0.07 0.08 0.11 0.14 0.15 0.17 0.22 0.30 0.40 0.55 0.71 0.79
0.40 0.34 0.23 0.24 0.15 0.11 0.13 0.10 0.13 0.10 0.08 0.06 0.06 0.06 0.08 0.11 0.14 0.20 0.29 0.36 0.41 0.44
0.50 0.40 0.31 0.24 0.17 0.12 0.12 0.12 0.10 0.15 0.10 0.07 0.08 0.10 0.11 0.11 0.11 0.10 0.10 0.13 0.15 0.22
0.47 0.38 0.35 0.28 0.19 0.16 0.12 0.12 0.08 0.17 0.21 0.17 0.17 0.20 0.19 0.19 0.20 0.21 0.25 0.26 0.31 0.37
0.45 0.38 0.36 0.39 0.20 0.15 0.16 0.16 0.15 0.16 0.17 0.18 0.21 0.37 0.31 0.25 0.26 0.29 0.31 0.34 0.37 0.41
0.53 0.44 0.39 0.35 0.27 0.18 0.16 0.22 0.26 0.28 0.20 0.16 0.15 0.29 0.24 0.22 0.20 0.23 0.25 0.25 0.23 0.20
0.96 0.78 0.68 0.57 0.51 0.35 0.32 0.31 0.26 0.28 0.37 0.45 0.54 0.51 0.36 0.29 0.21 0.19 0.17 0.15 0.13 0.09
1.17 0.99 1.13 1.19 0.96 0.80 0.74 0.69 0.77 0.64 0.55 0.66 0.75 0.62 0.47 0.31 0.22 0.18 0.13 0.07 0.02 0.02
1.21 0.94 0.94 0.80 0.81 0.74 0.64 0.68 0.66 0.71 0.58 0.53 0.48 0.36 0.27 0.21 0.13 0.07 0.03 0.02 0.02 0.03
0.85 0.90 0.77 0.73 0.54 0.62 0.54 0.42 0.38 0.35 0.31 0.21 0.13 0.05 0.04 0.04 0.04 0.03 0.04 0.02 0.01 0.01

GFSNIL_prec_precacc_195.txt.gz
Total_Precipitation_Accumulation
1.57 1.93 1.86 1.67 1.57 1.53 1.43 1.55 1.88 1.77 1.74 1.79 1.73 1.72 1.72 1.76 1.81 1.71 1.62 1.63 1.56 1.50
0.56 0.70 0.84 0.89 0.88 0.99 1.26 1.20 1.32 1.43 1.33 1.32 1.33 1.30 1.37 1.38 1.37 1.49 1.53 1.42 1.35 1.29
0.28 0.31 0.38 0.29 0.25 0.26 0.42 0.57 0.69 0.80 0.83 0.88 0.93 1.08 1.18 1.21 1.29 1.39 1.40 1.42 1.46 1.47
0.30 0.28 0.33 0.27 0.10 0.10 0.08 0.11 0.15 0.14 0.17 0.21 0.26 0.42 0.63 0.79 0.98 1.17 1.32 1.59 1.84 1.95
0.53 0.40 0.36 0.34 0.16 0.12 0.11 0.09 0.13 0.11 0.07 0.08 0.12 0.14 0.15 0.17 0.22 0.30 0.40 0.55 0.71 0.79
0.82 0.56 0.45 0.30 0.18 0.12 0.13 0.10 0.14 0.13 0.09 0.07 0.07 0.07 0.09 0.11 0.14 0.20 0.29 0.36 0.41 0.44
0.79 0.72 0.53 0.30 0.22 0.16 0.13 0.13 0.11 0.19 0.13 0.09 0.08 0.10 0.12 0.11 0.11 0.10 0.10 0.13 0.15 0.22
0.49 0.58 0.43 0.30 0.28 0.25 0.18 0.14 0.09 0.20 0.23 0.19 0.17 0.20 0.19 0.19 0.20 0.21 0.25 0.26 0.31 0.37
0.46 0.39 0.39 0.39 0.25 0.18 0.20 0.18 0.16 0.17 0.19 0.20 0.22 0.37 0.31 0.25 0.26 0.29 0.31 0.34 0.37 0.41
0.55 0.48 0.42 0.36 0.28 0.18 0.17 0.22 0.27 0.28 0.21 0.17 0.16 0.29 0.24 0.22 0.20 0.23 0.25 0.25 0.23 0.20
0.99 0.81 0.69 0.59 0.52 0.37 0.34 0.33 0.27 0.30 0.38 0.45 0.54 0.51 0.36 0.29 0.21 0.19 0.17 0.15 0.13 0.09
1.24 1.06 1.14 1.21 0.99 0.82 0.77 0.71 0.78 0.65 0.56 0.66 0.75 0.62 0.48 0.31 0.23 0.18 0.13 0.07 0.03 0.02
1.30 1.01 0.99 0.87 0.92 0.79 0.67 0.69 0.67 0.71 0.58 0.53 0.49 0.36 0.28 0.21 0.14 0.08 0.04 0.03 0.02 0.03
0.91 0.96 0.82 0.78 0.61 0.65 0.55 0.42 0.38 0.35 0.31 0.22 0.13 0.06 0.05 0.05 0.05 0.04 0.04 0.03 0.01 0.01

GFSNIL_prec_precacc_198.txt.gz
Total_Precipitation_Accumulation
1.57 1.93 1.87 1.68 1.58 1.54 1.43 1.55 1.88 1.77 1.74 1.79 1.75 1.72 1.73 1.78 1.82 1.72 1.62 1.63 1.56 1.50
0.56 0.70 0.84 0.90 0.89 1.00 1.26 1.20 1.32 1.43 1.33 1.32 1.33 1.31 1.39 1.39 1.38 1.50 1.54 1.42 1.35 1.29
0.28 0.31 0.38 0.30 0.27 0.27 0.42 0.58 0.69 0.80 0.83 0.88 0.93 1.10 1.21 1.22 1.29 1.39 1.41 1.42 1.46 1.47
0.34 0.31 0.34 0.28 0.13 0.11 0.09 0.11 0.15 0.14 0.17 0.21 0.26 0.43 0.65 0.81 0.98 1.17 1.32 1.59 1.84 1.95
0.56 0.46 0.39 0.37 0.19 0.14 0.12 0.10 0.13 0.11 0.07 0.09 0.12 0.16 0.16 0.19 0.23 0.30 0.40 0.55 0.71 0.79
0.88 0.70 0.55 0.38 0.30 0.16 0.14 0.12 0.15 0.13 0.09 0.08 0.09 0.09 0.10 0.11 0.15 0.20 0.29 0.36 0.41 0.44
0.88 0.85 0.71 0.47 0.37 0.25 0.14 0.15 0.12 0.20 0.13 0.09 0.10 0.13 0.13 0.11 0.11 0.10 0.10 0.13 0.15 0.22
0.52 0.76 0.63 0.42 0.38 0.35 0.21 0.19 0.09 0.22 0.24 0.19 0.17 0.21 0.22 0.20 0.20 0.21 0.25 0.26 0.31 0.37
0.48 0.47 0.47 0.45 0.36 0.30 0.28 0.29 0.17 0.19 0.21 0.21 0.22 0.37 0.31 0.25 0.26 0.29 0.31 0.34 0.37 0.41
0.57 0.50 0.45 0.37 0.36 0.25 0.25 0.26 0.29 0.28 0.22 0.18 0.16 0.29 0.24 0.22 0.20 0.23 0.25 0.25 0.23 0.20
1.01 0.84 0.73 0.59 0.53 0.37 0.35 0.33 0.27 0.30 0.38 0.45 0.54 0.51 0.36 0.29 0.21 0.19 0.17 0.15 0.13 0.09
1.25 1.08 1.17 1.21 0.99 0.82 0.77 0.71 0.79 0.65 0.56 0.66 0.75 0.62 0.48 0.31 0.23 0.18 0.14 0.07 0.03 0.02
1.34 1.05 1.00 0.87 0.93 0.80 0.69 0.70 0.68 0.72 0.59 0.54 0.49 0.37 0.28 0.21 0.14 0.08 0.04 0.03 0.02 0.03
0.93 1.01 0.87 0.82 0.66 0.67 0.56 0.43 0.39 0.35 0.32 0.22 0.13 0.06 0.05 0.05 0.05 0.04 0.05 0.03 0.02 0.02

GFSNIL_prec_precacc_201.txt.gz
Total_Precipitation_Accumulation
1.58 1.94 1.87 1.68 1.58 1.55 1.45 1.56 1.89 1.79 1.75 1.79 1.75 1.73 1.73 1.78 1.83 1.74 1.65 1.64 1.56 1.50
0.56 0.70 0.84 0.90 0.90 1.02 1.29 1.21 1.33 1.44 1.34 1.32 1.34 1.32 1.39 1.39 1.38 1.51 1.56 1.46 1.37 1.31
0.28 0.32 0.38 0.30 0.28 0.30 0.45 0.59 0.70 0.82 0.85 0.89 0.94 1.10 1.22 1.23 1.29 1.41 1.44 1.47 1.52 1.50
0.34 0.31 0.34 0.28 0.13 0.14 0.12 0.13 0.16 0.15 0.19 0.23 0.27 0.43 0.66 0.84 1.00 1.18 1.35 1.62 1.90 1.99
0.56 0.46 0.41 0.39 0.21 0.17 0.18 0.13 0.15 0.13 0.11 0.11 0.14 0.16 0.18 0.23 0.27 0.34 0.42 0.58 0.75 0.82
0.89 0.71 0.62 0.44 0.35 0.24 0.27 0.19 0.18 0.15 0.11 0.10 0.10 0.09 0.12 0.14 0.19 0.24 0.31 0.37 0.41 0.44
0.88 0.87 0.75 0.55 0.50 0.40 0.28 0.23 0.15 0.21 0.13 0.09 0.11 0.13 0.14 0.13 0.12 0.11 0.11 0.13 0.15 0.22
0.52 0.76 0.64 0.47 0.61 0.51 0.28 0.24 0.13 0.23 0.25 0.19 0.18 0.22 0.22 0.21 0.20 0.21 0.25 0.26 0.31 0.37
0.48 0.51 0.57 0.50 0.50 0.44 0.36 0.40 0.25 0.22 0.23 0.21 0.22 0.38 0.32 0.27 0.27 0.29 0.31 0.34 0.37 0.41
0.57 0.52 0.47 0.41 0.43 0.33 0.36 0.39 0.36 0.31 0.26 0.21 0.16 0.29 0.24 0.22 0.20 0.23 0.25 0.25 0.23 0.20
1.02 0.86 0.75 0.61 0.58 0.41 0.39 0.39 0.33 0.33 0.40 0.49 0.55 0.51 0.36 0.29 0.21 0.19 0.17 0.15 0.13 0.09
1.25 1.11 1.20 1.22 1.02 0.83 0.79 0.73 0.81 0.66 0.56 0.66 0.76 0.62 0.48 0.31 0.23 0.18 0.14 0.07 0.03 0.02
1.36 1.06 1.01 0.88 0.93 0.81 0.70 0.71 0.69 0.72 0.59 0.54 0.49 0.37 0.28 0.21 0.14 0.08 0.04 0.03 0.02 0.03
0.94 1.03 0.88 0.83 0.66 0.68 0.58 0.44 0.41 0.36 0.32 0.22 0.13 0.06 0.05 0.05 0.05 0.04 0.05 0.03 0.02 0.02

GFSNIL_prec_precacc_204.txt.gz
Total_Precipitation_Accumulation
1.58 1.94 1.87 1.68 1.58 1.55 1.45 1.56 1.90 1.82 1.78 1.84 1.78 1.74 1.73 1.78 1.83 1.74 1.66 1.66 1.58 1.51
0.57 0.70 0.85 0.90 0.90 1.02 1.29 1.22 1.34 1.46 1.38 1.37 1.38 1.35 1.40 1.40 1.38 1.52 1.58 1.50 1.42 1.38
0.28 0.32 0.39 0.31 0.28 0.30 0.45 0.61 0.72 0.84 0.89 0.95 0.98 1.13 1.24 1.24 1.30 1.42 1.47 1.50 1.61 1.58
0.34 0.32 0.34 0.28 0.13 0.14 0.13 0.16 0.18 0.18 0.24 0.31 0.32 0.46 0.68 0.86 1.01 1.21 1.40 1.73 1.97 2.13
0.57 0.47 0.41 0.39 0.21 0.17 0.19 0.20 0.18 0.16 0.16 0.19 0.19 0.18 0.19 0.25 0.30 0.36 0.47 0.64 0.86 0.95
0.89 0.71 0.62 0.45 0.37 0.26 0.29 0.37 0.51 0.23 0.14 0.15 0.15 0.12 0.14 0.16 0.23 0.29 0.42 0.48 0.49 0.53
0.89 0.87 0.75 0.57 0.55 0.46 0.40 0.39 0.50 0.47 0.16 0.12 0.14 0.16 0.16 0.14 0.14 0.17 0.20 0.25 0.23 0.24
0.53 0.77 0.64 0.47 0.66 0.56 0.39 0.43 0.31 0.41 0.30 0.24 0.22 0.24 0.23 0.21 0.21 0.23 0.29 0.29 0.32 0.37
0.48 0.54 0.62 0.51 0.54 0.50 0.48 0.60 0.39 0.45 0.35 0.27 0.28 0.40 0.33 0.27 0.27 0.29 0.32 0.36 0.38 0.42
0.57 0.53 0.48 0.41 0.45 0.38 0.44 0.58 0.59 0.51 0.37 0.24 0.20 0.32 0.24 0.22 0.20 0.23 0.26 0.26 0.23 0.20
1.04 0.87 0.76 0.62 0.60 0.44 0.46 0.50 0.53 0.50 0.55 0.56 0.59 0.52 0.37 0.29 0.21 0.19 0.17 0.15 0.13 0.09
1.26 1.15 1.21 1.23 1.04 0.84 0.81 0.80 0.88 0.74 0.62 0.71 0.84 0.62 0.48 0.31 0.23 0.18 0.14 0.07 0.03 0.02
1.37 1.11 1.02 0.88 0.93 0.81 0.72 0.73 0.73 0.73 0.61 0.54 0.51 0.37 0.28 0.21 0.14 0.08 0.04 0.03 0.02 0.03
0.95 1.05 0.89 0.83 0.66 0.68 0.58 0.46 0.41 0.36 0.32 0.22 0.13 0.06 0.05 0.05 0.05 0.04 0.05 0.03 0.02 0.02